sat.trackr.live / text

‹ back to catalog

STARLINK-34542

NORAD 65890 · 2025-224J

PAYLOAD ACTIVE UNKNOWN

§ Identity

Operator
Country
US
Launch date
2025-10-07
Launch site
AFETR
Launch vehicle
Mass (kg)
RCS (m²)

Purposes: comms

External: N2YO · Heavens-Above · Gunter

§ Orbital elements

Epoch: 2026-05-24T22:18:06.023232Z

Period
94.11 min
Inclination
53.1591°
Eccentricity
0.0000395
Mean motion
15.30200828 rev/d
Perigee alt
474.9 km
Apogee alt
475.5 km
Semi-major
6,853.3 km
B*
6.9684e-4
RAAN
17.4579°
Arg perigee
34.5579°
Mean anomaly
325.5447°
Rev number
3,654

§ Raw data

STARLINK-345421 65890U 25224J   26144.92923638  .00020337  00000+0  69684-3 0  99922 65890  53.1591  17.4579 0000395  34.5579 325.5447 15.30200828 36544

JSON: /api/v1/satellites/65890 · /tle

For live sub-satellite position, see the globe view (requires WebGL).

§ Visibility from observer

Set your observer location to see the next 7 days of passes ≥ 10°. The values pass through the URL so the page stays shareable.

No JS? Fill the form by hand. The geolocation button needs JavaScript.